owner,sensor,date,latitude,longitude,vertical_datum,mass_concentration_of_oxygen_in_sea_water,qcFlag 
SCCF RECON,ioos:station:SCCF:13:1,2011-06-01T00:00:00Z,26.5255,-82.0032,2.018,6.43,1111122 
SCCF RECON,ioos:station:SCCF:13:1,2011-06-01T01:00:00Z,26.5255,-82.0032,1.998,6.06,1111122 
SCCF RECON,ioos:station:SCCF:13:1,2011-06-01T02:00:00Z,26.5255,-82.0032,2.07,5.82,1111122 
SCCF RECON,ioos:station:SCCF:13:1,2011-06-01T03:00:00Z,26.5255,-82.0032,2.152,5.67,1111122 
SCCF RECON,ioos:station:SCCF:13:1,2011-06-01T04:00:00Z,26.5255,-82.0032,2.23,5.45,1111122 
SCCF RECON,ioos:station:SCCF:13:1,2011-06-01T05:00:00Z,26.5255,-82.0032,2.279,4.86,1111122 
SCCF RECON,ioos:station:SCCF:13:1,2011-06-01T06:00:00Z,26.5255,-82.0032,2.295,5.57,1111122 
SCCF RECON,ioos:station:SCCF:13:1,2011-06-01T07:00:00Z,26.5255,-82.0032,2.29,5.68,1111122 
SCCF RECON,ioos:station:SCCF:13:1,2011-06-01T08:00:00Z,26.5255,-82.0032,2.251,5.55,1111122 
SCCF RECON,ioos:station:SCCF:13:1,2011-06-01T09:00:00Z,26.5255,-82.0032,2.212,5.18,1111122 
SCCF RECON,ioos:station:SCCF:13:1,2011-06-01T10:00:00Z,26.5255,-82.0032,2.212,5.22,1111122 
SCCF RECON,ioos:station:SCCF:13:1,2011-06-01T11:00:00Z,26.5255,-82.0032,2.239,5.23,1111122 
SCCF RECON,ioos:station:SCCF:13:1,2011-06-01T12:00:00Z,26.5255,-82.0032,2.292,4.23,1111122 
SCCF RECON,ioos:station:SCCF:13:1,2011-06-01T13:00:00Z,26.5255,-82.0032,2.37,5.09,1111122 
SCCF RECON,ioos:station:SCCF:13:1,2011-06-01T14:00:00Z,26.5255,-82.0032,2.46,6.01,1111122 
SCCF RECON,ioos:station:SCCF:13:1,2011-06-01T15:00:00Z,26.5255,-82.0032,2.55,6.3,1111122 
SCCF RECON,ioos:station:SCCF:13:1,2011-06-01T16:00:00Z,26.5255,-82.0032,2.599,6.0,1111122 
SCCF RECON,ioos:station:SCCF:13:1,2011-06-01T17:00:00Z,26.5255,-82.0032,2.625,6.17,1111122 
SCCF RECON,ioos:station:SCCF:13:1,2011-06-01T18:00:00Z,26.5255,-82.0032,2.61,6.65,1111122 
SCCF RECON,ioos:station:SCCF:13:1,2011-06-01T19:00:00Z,26.5255,-82.0032,2.51,6.77,1111122 
SCCF RECON,ioos:station:SCCF:13:1,2011-06-01T20:00:00Z,26.5255,-82.0032,2.397,6.74,1111122 
SCCF RECON,ioos:station:SCCF:13:1,2011-06-01T21:00:00Z,26.5255,-82.0032,2.3,6.59,1111122 
SCCF RECON,ioos:station:SCCF:13:1,2011-06-01T22:00:00Z,26.5255,-82.0032,2.22,6.35,1111122 
SCCF RECON,ioos:station:SCCF:13:1,2011-06-01T23:00:00Z,26.5255,-82.0032,2.116,6.35,1111122 
SCCF RECON,ioos:station:SCCF:13:1,2011-06-02T00:00:00Z,26.5255,-82.0032,2.021,6.26,1111122 
SCCF RECON,ioos:station:SCCF:13:1,2011-06-02T01:00:00Z,26.5255,-82.0032,1.97,5.95,1111122 
SCCF RECON,ioos:station:SCCF:13:1,2011-06-02T02:00:00Z,26.5255,-82.0032,1.993,5.59,1111122 
SCCF RECON,ioos:station:SCCF:13:1,2011-06-02T03:00:00Z,26.5255,-82.0032,2.103,5.41,1111122 
SCCF RECON,ioos:station:SCCF:13:1,2011-06-02T04:00:00Z,26.5255,-82.0032,2.168,5.3,1111122 
SCCF RECON,ioos:station:SCCF:13:1,2011-06-02T05:00:00Z,26.5255,-82.0032,2.253,4.76,1111122 
SCCF RECON,ioos:station:SCCF:13:1,2011-06-02T06:00:00Z,26.5255,-82.0032,2.32,5.39,1111122 
SCCF RECON,ioos:station:SCCF:13:1,2011-06-02T07:00:00Z,26.5255,-82.0032,2.374,5.5,1111122 
SCCF RECON,ioos:station:SCCF:13:1,2011-06-02T08:00:00Z,26.5255,-82.0032,2.36,5.45,1111122 
SCCF RECON,ioos:station:SCCF:13:1,2011-06-02T09:00:00Z,26.5255,-82.0032,2.287,5.28,1111122 
SCCF RECON,ioos:station:SCCF:13:1,2011-06-02T10:00:00Z,26.5255,-82.0032,2.25,5.21,1111122 
SCCF RECON,ioos:station:SCCF:13:1,2011-06-02T11:00:00Z,26.5255,-82.0032,2.241,4.94,1111122 
SCCF RECON,ioos:station:SCCF:13:1,2011-06-02T12:00:00Z,26.5255,-82.0032,2.26,4.66,1111122 
SCCF RECON,ioos:station:SCCF:13:1,2011-06-02T13:00:00Z,26.5255,-82.0032,2.327,4.63,1111122 
SCCF RECON,ioos:station:SCCF:13:1,2011-06-02T14:00:00Z,26.5255,-82.0032,2.4,4.64,1111122 
SCCF RECON,ioos:station:SCCF:13:1,2011-06-02T15:00:00Z,26.5255,-82.0032,2.496,5.88,1111122 
SCCF RECON,ioos:station:SCCF:13:1,2011-06-02T16:00:00Z,26.5255,-82.0032,2.576,6.14,1111122 
SCCF RECON,ioos:station:SCCF:13:1,2011-06-02T17:00:00Z,26.5255,-82.0032,2.619,6.25,1111122 
SCCF RECON,ioos:station:SCCF:13:1,2011-06-02T18:00:00Z,26.5255,-82.0032,2.621,6.43,1111122 
SCCF RECON,ioos:station:SCCF:13:1,2011-06-02T19:00:00Z,26.5255,-82.0032,2.56,6.68,1111122 
SCCF RECON,ioos:station:SCCF:13:1,2011-06-02T20:00:00Z,26.5255,-82.0032,2.436,6.91,1111122 
SCCF RECON,ioos:station:SCCF:13:1,2011-06-02T21:00:00Z,26.5255,-82.0032,2.337,6.71,1111122 
SCCF RECON,ioos:station:SCCF:13:1,2011-06-02T22:00:00Z,26.5255,-82.0032,2.26,6.48,1111122 
SCCF RECON,ioos:station:SCCF:13:1,2011-06-02T23:00:00Z,26.5255,-82.0032,2.169,6.6,1111122 
SCCF RECON,ioos:station:SCCF:13:1,2011-06-03T00:00:00Z,26.5255,-82.0032,2.079,6.33,1111122 
SCCF RECON,ioos:station:SCCF:13:1,2011-06-03T01:00:00Z,26.5255,-82.0032,1.998,6.07,1111122 
SCCF RECON,ioos:station:SCCF:13:1,2011-06-03T02:00:00Z,26.5255,-82.0032,1.95,5.84,1111122 
SCCF RECON,ioos:station:SCCF:13:1,2011-06-03T03:00:00Z,26.5255,-82.0032,2.011,5.62,1111122 
SCCF RECON,ioos:station:SCCF:13:1,2011-06-03T04:00:00Z,26.5255,-82.0032,2.144,5.5,1111122 
SCCF RECON,ioos:station:SCCF:13:1,2011-06-03T05:00:00Z,26.5255,-82.0032,2.24,5.17,1111122 
SCCF RECON,ioos:station:SCCF:13:1,2011-06-03T06:00:00Z,26.5255,-82.0032,2.286,5.34,1111122 
SCCF RECON,ioos:station:SCCF:13:1,2011-06-03T07:00:00Z,26.5255,-82.0032,2.313,5.37,1111122 
SCCF RECON,ioos:station:SCCF:13:1,2011-06-03T08:00:00Z,26.5255,-82.0032,2.321,5.43,1111122 
SCCF RECON,ioos:station:SCCF:13:1,2011-06-03T09:00:00Z,26.5255,-82.0032,2.3,5.31,1111122 
SCCF RECON,ioos:station:SCCF:13:1,2011-06-03T10:00:00Z,26.5255,-82.0032,2.276,5.25,1111122 
SCCF RECON,ioos:station:SCCF:13:1,2011-06-03T11:00:00Z,26.5255,-82.0032,2.295,5.02,1111122 
SCCF RECON,ioos:station:SCCF:13:1,2011-06-03T12:00:00Z,26.5255,-82.0032,2.316,4.68,1111122 
SCCF RECON,ioos:station:SCCF:13:1,2011-06-03T13:00:00Z,26.5255,-82.0032,2.329,4.63,1111122 
SCCF RECON,ioos:station:SCCF:13:1,2011-06-03T14:00:00Z,26.5255,-82.0032,2.392,5.24,1111122 
SCCF RECON,ioos:station:SCCF:13:1,2011-06-03T15:00:00Z,26.5255,-82.0032,2.455,5.98,1111122 
SCCF RECON,ioos:station:SCCF:13:1,2011-06-03T16:00:00Z,26.5255,-82.0032,2.536,6.47,1111122 
SCCF RECON,ioos:station:SCCF:13:1,2011-06-03T17:00:00Z,26.5255,-82.0032,2.59,6.37,1111122 
SCCF RECON,ioos:station:SCCF:13:1,2011-06-03T18:00:00Z,26.5255,-82.0032,2.63,6.42,1111122 
SCCF RECON,ioos:station:SCCF:13:1,2011-06-03T19:00:00Z,26.5255,-82.0032,2.64,6.8,1111122 
SCCF RECON,ioos:station:SCCF:13:1,2011-06-03T20:00:00Z,26.5255,-82.0032,2.56,6.95,1111122 
SCCF RECON,ioos:station:SCCF:13:1,2011-06-03T21:00:00Z,26.5255,-82.0032,2.44,7.02,1111122 
SCCF RECON,ioos:station:SCCF:13:1,2011-06-03T22:00:00Z,26.5255,-82.0032,2.342,6.75,1111122 
SCCF RECON,ioos:station:SCCF:13:1,2011-06-03T23:00:00Z,26.5255,-82.0032,2.25,6.67,1111122 
SCCF RECON,ioos:station:SCCF:13:1,2011-06-04T00:00:00Z,26.5255,-82.0032,2.164,6.55,1111122 
SCCF RECON,ioos:station:SCCF:13:1,2011-06-04T01:00:00Z,26.5255,-82.0032,2.081,6.34,1111122 
SCCF RECON,ioos:station:SCCF:13:1,2011-06-04T02:00:00Z,26.5255,-82.0032,2.01,6.1,1111122 
SCCF RECON,ioos:station:SCCF:13:1,2011-06-04T03:00:00Z,26.5255,-82.0032,1.992,5.86,1111122 
SCCF RECON,ioos:station:SCCF:13:1,2011-06-04T04:00:00Z,26.5255,-82.0032,2.087,5.67,1111122 
SCCF RECON,ioos:station:SCCF:13:1,2011-06-04T05:00:00Z,26.5255,-82.0032,2.196,5.55,1111122 
SCCF RECON,ioos:station:SCCF:13:1,2011-06-04T06:00:00Z,26.5255,-82.0032,2.27,5.25,1111122 
SCCF RECON,ioos:station:SCCF:13:1,2011-06-04T07:00:00Z,26.5255,-82.0032,2.317,5.4,1111122 
SCCF RECON,ioos:station:SCCF:13:1,2011-06-04T08:00:00Z,26.5255,-82.0032,2.342,5.41,1111122 
SCCF RECON,ioos:station:SCCF:13:1,2011-06-04T09:00:00Z,26.5255,-82.0032,2.356,5.47,1111122 
SCCF RECON,ioos:station:SCCF:13:1,2011-06-04T10:00:00Z,26.5255,-82.0032,2.358,5.44,1111122 
SCCF RECON,ioos:station:SCCF:13:1,2011-06-04T11:00:00Z,26.5255,-82.0032,2.364,5.3,1111122 
SCCF RECON,ioos:station:SCCF:13:1,2011-06-04T12:00:00Z,26.5255,-82.0032,2.349,5.18,1111122 
SCCF RECON,ioos:station:SCCF:13:1,2011-06-04T13:00:00Z,26.5255,-82.0032,2.329,5.44,1111122 
SCCF RECON,ioos:station:SCCF:13:1,2011-06-04T14:00:00Z,26.5255,-82.0032,2.365,5.44,1111122 
SCCF RECON,ioos:station:SCCF:13:1,2011-06-04T15:00:00Z,26.5255,-82.0032,2.443,5.4,1111122 
SCCF RECON,ioos:station:SCCF:13:1,2011-06-04T16:00:00Z,26.5255,-82.0032,2.52,6.35,1111122 
SCCF RECON,ioos:station:SCCF:13:1,2011-06-04T17:00:00Z,26.5255,-82.0032,2.581,6.56,1111122 
SCCF RECON,ioos:station:SCCF:13:1,2011-06-04T18:00:00Z,26.5255,-82.0032,2.64,6.36,1111122 
SCCF RECON,ioos:station:SCCF:13:1,2011-06-04T19:00:00Z,26.5255,-82.0032,2.671,6.65,1111122 
SCCF RECON,ioos:station:SCCF:13:1,2011-06-04T20:00:00Z,26.5255,-82.0032,2.629,6.76,1111122 
SCCF RECON,ioos:station:SCCF:13:1,2011-06-04T21:00:00Z,26.5255,-82.0032,2.529,6.85,1111122 
SCCF RECON,ioos:station:SCCF:13:1,2011-06-04T22:00:00Z,26.5255,-82.0032,2.438,6.67,1111122 
SCCF RECON,ioos:station:SCCF:13:1,2011-06-04T23:00:00Z,26.5255,-82.0032,2.347,6.44,1111122 
SCCF RECON,ioos:station:SCCF:13:1,2011-06-05T00:00:00Z,26.5255,-82.0032,2.26,6.49,1111122 
SCCF RECON,ioos:station:SCCF:13:1,2011-06-05T01:00:00Z,26.5255,-82.0032,2.165,6.22,1111122 
SCCF RECON,ioos:station:SCCF:13:1,2011-06-05T02:00:00Z,26.5255,-82.0032,2.079,6.12,1111122 
SCCF RECON,ioos:station:SCCF:13:1,2011-06-05T03:00:00Z,26.5255,-82.0032,2.016,5.89,1111122 
SCCF RECON,ioos:station:SCCF:13:1,2011-06-05T04:00:00Z,26.5255,-82.0032,2.014,5.69,1111122 
SCCF RECON,ioos:station:SCCF:13:1,2011-06-05T05:00:00Z,26.5255,-82.0032,2.115,5.53,1111122 
SCCF RECON,ioos:station:SCCF:13:1,2011-06-05T06:00:00Z,26.5255,-82.0032,2.201,5.4,1111122 
SCCF RECON,ioos:station:SCCF:13:1,2011-06-05T07:00:00Z,26.5255,-82.0032,2.259,4.92,1111122 
SCCF RECON,ioos:station:SCCF:13:1,2011-06-05T08:00:00Z,26.5255,-82.0032,2.301,5.18,1111122 
SCCF RECON,ioos:station:SCCF:13:1,2011-06-05T09:00:00Z,26.5255,-82.0032,2.333,5.23,1111122 
SCCF RECON,ioos:station:SCCF:13:1,2011-06-05T10:00:00Z,26.5255,-82.0032,2.358,5.26,1111122 
SCCF RECON,ioos:station:SCCF:13:1,2011-06-05T11:00:00Z,26.5255,-82.0032,2.35,5.16,1111122 
SCCF RECON,ioos:station:SCCF:13:1,2011-06-05T12:00:00Z,26.5255,-82.0032,2.324,5.01,1111122 
SCCF RECON,ioos:station:SCCF:13:1,2011-06-05T13:00:00Z,26.5255,-82.0032,2.313,5.1,1111122 
SCCF RECON,ioos:station:SCCF:13:1,2011-06-05T14:00:00Z,26.5255,-82.0032,2.311,5.11,1111122 
SCCF RECON,ioos:station:SCCF:13:1,2011-06-05T15:00:00Z,26.5255,-82.0032,2.32,5.06,1111122 
SCCF RECON,ioos:station:SCCF:13:1,2011-06-05T16:00:00Z,26.5255,-82.0032,2.397,4.7,1111122 
SCCF RECON,ioos:station:SCCF:13:1,2011-06-05T17:00:00Z,26.5255,-82.0032,2.477,6.42,1111122 
SCCF RECON,ioos:station:SCCF:13:1,2011-06-05T18:00:00Z,26.5255,-82.0032,2.541,6.58,1111122 
SCCF RECON,ioos:station:SCCF:13:1,2011-06-05T19:00:00Z,26.5255,-82.0032,2.58,6.28,1111122 
SCCF RECON,ioos:station:SCCF:13:1,2011-06-05T20:00:00Z,26.5255,-82.0032,2.59,6.72,1111122 
SCCF RECON,ioos:station:SCCF:13:1,2011-06-05T21:00:00Z,26.5255,-82.0032,2.55,6.69,1111122 
SCCF RECON,ioos:station:SCCF:13:1,2011-06-05T22:00:00Z,26.5255,-82.0032,2.47,6.55,1111122 
SCCF RECON,ioos:station:SCCF:13:1,2011-06-05T23:00:00Z,26.5255,-82.0032,2.39,6.42,1111122 
SCCF RECON,ioos:station:SCCF:13:1,2011-06-06T00:00:00Z,26.5255,-82.0032,2.31,6.18,1111122 
SCCF RECON,ioos:station:SCCF:13:1,2011-06-06T01:00:00Z,26.5255,-82.0032,2.23,5.89,1111122 
SCCF RECON,ioos:station:SCCF:13:1,2011-06-06T02:00:00Z,26.5255,-82.0032,2.15,6.04,1111122 
SCCF RECON,ioos:station:SCCF:13:1,2011-06-06T03:00:00Z,26.5255,-82.0032,2.078,5.91,1111122 
SCCF RECON,ioos:station:SCCF:13:1,2011-06-06T04:00:00Z,26.5255,-82.0032,2.036,5.77,1111122 
SCCF RECON,ioos:station:SCCF:13:1,2011-06-06T05:00:00Z,26.5255,-82.0032,2.105,5.61,1111122 
SCCF RECON,ioos:station:SCCF:13:1,2011-06-06T06:00:00Z,26.5255,-82.0032,2.209,5.46,1111122 
SCCF RECON,ioos:station:SCCF:13:1,2011-06-06T07:00:00Z,26.5255,-82.0032,2.288,4.89,1111122 
SCCF RECON,ioos:station:SCCF:13:1,2011-06-06T08:00:00Z,26.5255,-82.0032,2.34,5.23,1111122 
SCCF RECON,ioos:station:SCCF:13:1,2011-06-06T09:00:00Z,26.5255,-82.0032,2.38,5.14,1111122 
SCCF RECON,ioos:station:SCCF:13:1,2011-06-06T10:00:00Z,26.5255,-82.0032,2.4,5.19,1111122 
SCCF RECON,ioos:station:SCCF:13:1,2011-06-06T11:00:00Z,26.5255,-82.0032,2.41,5.11,1111122 
SCCF RECON,ioos:station:SCCF:13:1,2011-06-06T12:00:00Z,26.5255,-82.0032,2.401,5.18,1111122 
SCCF RECON,ioos:station:SCCF:13:1,2011-06-06T13:00:00Z,26.5255,-82.0032,2.389,5.18,1111122 
SCCF RECON,ioos:station:SCCF:13:1,2011-06-06T14:00:00Z,26.5255,-82.0032,2.363,5.12,1111122 
SCCF RECON,ioos:station:SCCF:13:1,2011-06-06T15:00:00Z,26.5255,-82.0032,2.36,5.21,1111122 
SCCF RECON,ioos:station:SCCF:13:1,2011-06-06T16:00:00Z,26.5255,-82.0032,2.411,5.2,1111122 
SCCF RECON,ioos:station:SCCF:13:1,2011-06-06T17:00:00Z,26.5255,-82.0032,2.46,5.17,1111122 
SCCF RECON,ioos:station:SCCF:13:1,2011-06-06T18:00:00Z,26.5255,-82.0032,2.523,6.31,1111122 
SCCF RECON,ioos:station:SCCF:13:1,2011-06-06T19:00:00Z,26.5255,-82.0032,2.569,6.77,1111122 
SCCF RECON,ioos:station:SCCF:13:1,2011-06-06T20:00:00Z,26.5255,-82.0032,2.594,6.46,1111122 
SCCF RECON,ioos:station:SCCF:13:1,2011-06-06T21:00:00Z,26.5255,-82.0032,2.61,6.66,1111122 
SCCF RECON,ioos:station:SCCF:13:1,2011-06-06T22:00:00Z,26.5255,-82.0032,2.6,6.77,1111122 
SCCF RECON,ioos:station:SCCF:13:1,2011-06-06T23:00:00Z,26.5255,-82.0032,2.513,6.62,1111122 
SCCF RECON,ioos:station:SCCF:13:1,2011-06-07T00:00:00Z,26.5255,-82.0032,2.428,6.42,1111122 
SCCF RECON,ioos:station:SCCF:13:1,2011-06-07T01:00:00Z,26.5255,-82.0032,2.34,6.09,1111122 
SCCF RECON,ioos:station:SCCF:13:1,2011-06-07T02:00:00Z,26.5255,-82.0032,2.263,5.94,1111122 
SCCF RECON,ioos:station:SCCF:13:1,2011-06-07T03:00:00Z,26.5255,-82.0032,2.18,6.01,1111122 
SCCF RECON,ioos:station:SCCF:13:1,2011-06-07T04:00:00Z,26.5255,-82.0032,2.11,5.81,1111122 
SCCF RECON,ioos:station:SCCF:13:1,2011-06-07T05:00:00Z,26.5255,-82.0032,2.09,5.66,1111122 
SCCF RECON,ioos:station:SCCF:13:1,2011-06-07T06:00:00Z,26.5255,-82.0032,2.17,5.37,1111122 
SCCF RECON,ioos:station:SCCF:13:1,2011-06-07T07:00:00Z,26.5255,-82.0032,2.304,5.19,1111122 
SCCF RECON,ioos:station:SCCF:13:1,2011-06-07T08:00:00Z,26.5255,-82.0032,2.366,4.58,1111122 
SCCF RECON,ioos:station:SCCF:13:1,2011-06-07T09:00:00Z,26.5255,-82.0032,2.414,4.91,1111122 
SCCF RECON,ioos:station:SCCF:13:1,2011-06-07T10:00:00Z,26.5255,-82.0032,2.468,5.12,1111122 
SCCF RECON,ioos:station:SCCF:13:1,2011-06-07T11:00:00Z,26.5255,-82.0032,2.48,5.02,1111122 
SCCF RECON,ioos:station:SCCF:13:1,2011-06-07T12:00:00Z,26.5255,-82.0032,2.433,4.94,1111122 
SCCF RECON,ioos:station:SCCF:13:1,2011-06-07T13:00:00Z,26.5255,-82.0032,2.38,4.98,1111122 
SCCF RECON,ioos:station:SCCF:13:1,2011-06-07T14:00:00Z,26.5255,-82.0032,2.356,4.97,1111122 
SCCF RECON,ioos:station:SCCF:13:1,2011-06-07T15:00:00Z,26.5255,-82.0032,2.335,4.95,1111122 
SCCF RECON,ioos:station:SCCF:13:1,2011-06-07T16:00:00Z,26.5255,-82.0032,2.318,5.03,1111122 
SCCF RECON,ioos:station:SCCF:13:1,2011-06-07T17:00:00Z,26.5255,-82.0032,2.321,5.3,1111122 
SCCF RECON,ioos:station:SCCF:13:1,2011-06-07T18:00:00Z,26.5255,-82.0032,2.359,5.22,1111122 
SCCF RECON,ioos:station:SCCF:13:1,2011-06-07T19:00:00Z,26.5255,-82.0032,2.425,4.62,1111122 
SCCF RECON,ioos:station:SCCF:13:1,2011-06-07T20:00:00Z,26.5255,-82.0032,2.493,5.94,1111122 
SCCF RECON,ioos:station:SCCF:13:1,2011-06-07T21:00:00Z,26.5255,-82.0032,2.519,6.1,1111122 
SCCF RECON,ioos:station:SCCF:13:1,2011-06-07T22:00:00Z,26.5255,-82.0032,2.542,6.17,1111122 
SCCF RECON,ioos:station:SCCF:13:1,2011-06-07T23:00:00Z,26.5255,-82.0032,2.54,6.31,1111122 
SCCF RECON,ioos:station:SCCF:13:1,2011-06-08T00:00:00Z,26.5255,-82.0032,2.474,6.41,1111122 
SCCF RECON,ioos:station:SCCF:13:1,2011-06-08T01:00:00Z,26.5255,-82.0032,2.398,5.9,1111122 
SCCF RECON,ioos:station:SCCF:13:1,2011-06-08T02:00:00Z,26.5255,-82.0032,2.318,5.56,1111122 
SCCF RECON,ioos:station:SCCF:13:1,2011-06-08T03:00:00Z,26.5255,-82.0032,2.24,5.57,1111122 
SCCF RECON,ioos:station:SCCF:13:1,2011-06-08T04:00:00Z,26.5255,-82.0032,2.16,5.51,1111122 
SCCF RECON,ioos:station:SCCF:13:1,2011-06-08T05:00:00Z,26.5255,-82.0032,2.097,5.43,1111122 
SCCF RECON,ioos:station:SCCF:13:1,2011-06-08T06:00:00Z,26.5255,-82.0032,2.08,5.37,1111122 
SCCF RECON,ioos:station:SCCF:13:1,2011-06-08T07:00:00Z,26.5255,-82.0032,2.164,5.29,1111122 
SCCF RECON,ioos:station:SCCF:13:1,2011-06-08T08:00:00Z,26.5255,-82.0032,2.274,5.14,1111122 
SCCF RECON,ioos:station:SCCF:13:1,2011-06-08T09:00:00Z,26.5255,-82.0032,2.328,4.5,1111122 
SCCF RECON,ioos:station:SCCF:13:1,2011-06-08T10:00:00Z,26.5255,-82.0032,2.407,4.75,1111122 
SCCF RECON,ioos:station:SCCF:13:1,2011-06-08T11:00:00Z,26.5255,-82.0032,2.475,4.84,1111122 
SCCF RECON,ioos:station:SCCF:13:1,2011-06-08T12:00:00Z,26.5255,-82.0032,2.49,4.95,1111122 
SCCF RECON,ioos:station:SCCF:13:1,2011-06-08T13:00:00Z,26.5255,-82.0032,2.46,5.19,1111122 
SCCF RECON,ioos:station:SCCF:13:1,2011-06-08T14:00:00Z,26.5255,-82.0032,2.399,5.21,1111122 
SCCF RECON,ioos:station:SCCF:13:1,2011-06-08T16:00:00Z,26.5255,-82.0032,2.298,5.3,1111122 
SCCF RECON,ioos:station:SCCF:13:1,2011-06-08T17:00:00Z,26.5255,-82.0032,2.274,5.39,1111122 
SCCF RECON,ioos:station:SCCF:13:1,2011-06-08T18:00:00Z,26.5255,-82.0032,2.257,5.64,1111122 
SCCF RECON,ioos:station:SCCF:13:1,2011-06-08T19:00:00Z,26.5255,-82.0032,2.281,5.8,1111122 
SCCF RECON,ioos:station:SCCF:13:1,2011-06-08T20:00:00Z,26.5255,-82.0032,2.347,5.73,1111122 
SCCF RECON,ioos:station:SCCF:13:1,2011-06-08T21:00:00Z,26.5255,-82.0032,2.406,6.56,1111122 
SCCF RECON,ioos:station:SCCF:13:1,2011-06-08T22:00:00Z,26.5255,-82.0032,2.462,6.46,1111122 
SCCF RECON,ioos:station:SCCF:13:1,2011-06-08T23:00:00Z,26.5255,-82.0032,2.502,5.93,1111122 
SCCF RECON,ioos:station:SCCF:13:1,2011-06-09T00:00:00Z,26.5255,-82.0032,2.518,6.31,1111122 
SCCF RECON,ioos:station:SCCF:13:1,2011-06-09T01:00:00Z,26.5255,-82.0032,2.474,6.22,1111122 
SCCF RECON,ioos:station:SCCF:13:1,2011-06-09T02:00:00Z,26.5255,-82.0032,2.406,6.31,1111122 
SCCF RECON,ioos:station:SCCF:13:1,2011-06-09T03:00:00Z,26.5255,-82.0032,2.33,5.8,1111122 
SCCF RECON,ioos:station:SCCF:13:1,2011-06-09T04:00:00Z,26.5255,-82.0032,2.25,5.36,1111122 
SCCF RECON,ioos:station:SCCF:13:1,2011-06-09T05:00:00Z,26.5255,-82.0032,2.167,5.47,1111122 
SCCF RECON,ioos:station:SCCF:13:1,2011-06-09T06:00:00Z,26.5255,-82.0032,2.11,5.37,1111122 
SCCF RECON,ioos:station:SCCF:13:1,2011-06-09T07:00:00Z,26.5255,-82.0032,2.139,5.36,1111122 
SCCF RECON,ioos:station:SCCF:13:1,2011-06-09T08:00:00Z,26.5255,-82.0032,2.247,5.32,1111122 
SCCF RECON,ioos:station:SCCF:13:1,2011-06-09T09:00:00Z,26.5255,-82.0032,2.332,4.56,1111122 
SCCF RECON,ioos:station:SCCF:13:1,2011-06-09T10:00:00Z,26.5255,-82.0032,2.419,4.84,1111122 
SCCF RECON,ioos:station:SCCF:13:1,2011-06-09T11:00:00Z,26.5255,-82.0032,2.504,4.88,1111122 
SCCF RECON,ioos:station:SCCF:13:1,2011-06-09T12:00:00Z,26.5255,-82.0032,2.557,5.15,1111122 
SCCF RECON,ioos:station:SCCF:13:1,2011-06-09T13:00:00Z,26.5255,-82.0032,2.56,5.09,1111122 
SCCF RECON,ioos:station:SCCF:13:1,2011-06-09T14:00:00Z,26.5255,-82.0032,2.52,5.15,1111122 
SCCF RECON,ioos:station:SCCF:13:1,2011-06-09T15:00:00Z,26.5255,-82.0032,2.438,5.33,1111122 
SCCF RECON,ioos:station:SCCF:13:1,2011-06-09T16:00:00Z,26.5255,-82.0032,2.37,5.46,1111122 
SCCF RECON,ioos:station:SCCF:13:1,2011-06-09T17:00:00Z,26.5255,-82.0032,2.3,5.42,1111122 
SCCF RECON,ioos:station:SCCF:13:1,2011-06-09T18:00:00Z,26.5255,-82.0032,2.25,5.55,1111122 
SCCF RECON,ioos:station:SCCF:13:1,2011-06-09T19:00:00Z,26.5255,-82.0032,2.215,5.72,1111122 
SCCF RECON,ioos:station:SCCF:13:1,2011-06-09T20:00:00Z,26.5255,-82.0032,2.229,5.97,1111122 
SCCF RECON,ioos:station:SCCF:13:1,2011-06-09T21:00:00Z,26.5255,-82.0032,2.309,5.84,1111122 
SCCF RECON,ioos:station:SCCF:13:1,2011-06-09T22:00:00Z,26.5255,-82.0032,2.384,5.69,1111122 
SCCF RECON,ioos:station:SCCF:13:1,2011-06-09T23:00:00Z,26.5255,-82.0032,2.43,6.46,1111122 
SCCF RECON,ioos:station:SCCF:13:1,2011-06-10T00:00:00Z,26.5255,-82.0032,2.469,5.9,1111122 
SCCF RECON,ioos:station:SCCF:13:1,2011-06-10T01:00:00Z,26.5255,-82.0032,2.495,5.89,1111122 
SCCF RECON,ioos:station:SCCF:13:1,2011-06-10T02:00:00Z,26.5255,-82.0032,2.5,6.36,1111122 
SCCF RECON,ioos:station:SCCF:13:1,2011-06-10T03:00:00Z,26.5255,-82.0032,2.44,6.27,1111122 
SCCF RECON,ioos:station:SCCF:13:1,2011-06-10T04:00:00Z,26.5255,-82.0032,2.341,6.07,1111122 
SCCF RECON,ioos:station:SCCF:13:1,2011-06-10T05:00:00Z,26.5255,-82.0032,2.271,5.61,1111122 
SCCF RECON,ioos:station:SCCF:13:1,2011-06-10T06:00:00Z,26.5255,-82.0032,2.22,5.26,1111122 
SCCF RECON,ioos:station:SCCF:13:1,2011-06-10T07:00:00Z,26.5255,-82.0032,2.19,5.37,1111122 
SCCF RECON,ioos:station:SCCF:13:1,2011-06-10T08:00:00Z,26.5255,-82.0032,2.219,5.22,1111122 
SCCF RECON,ioos:station:SCCF:13:1,2011-06-10T09:00:00Z,26.5255,-82.0032,2.321,5.16,1111122 
SCCF RECON,ioos:station:SCCF:13:1,2011-06-10T10:00:00Z,26.5255,-82.0032,2.4,4.49,1111122 
SCCF RECON,ioos:station:SCCF:13:1,2011-06-10T11:00:00Z,26.5255,-82.0032,2.472,4.79,1111122 
SCCF RECON,ioos:station:SCCF:13:1,2011-06-10T12:00:00Z,26.5255,-82.0032,2.54,5.0,1111122 
SCCF RECON,ioos:station:SCCF:13:1,2011-06-10T13:00:00Z,26.5255,-82.0032,2.58,5.24,1111122 
SCCF RECON,ioos:station:SCCF:13:1,2011-06-10T14:00:00Z,26.5255,-82.0032,2.58,5.13,1111122 
SCCF RECON,ioos:station:SCCF:13:1,2011-06-10T15:00:00Z,26.5255,-82.0032,2.503,5.31,1111122 
SCCF RECON,ioos:station:SCCF:13:1,2011-06-10T16:00:00Z,26.5255,-82.0032,2.42,5.42,1111122 
SCCF RECON,ioos:station:SCCF:13:1,2011-06-10T17:00:00Z,26.5255,-82.0032,2.332,5.54,1111122 
SCCF RECON,ioos:station:SCCF:13:1,2011-06-10T18:00:00Z,26.5255,-82.0032,2.25,5.7,1111122 
SCCF RECON,ioos:station:SCCF:13:1,2011-06-10T19:00:00Z,26.5255,-82.0032,2.175,5.99,1111122 
SCCF RECON,ioos:station:SCCF:13:1,2011-06-10T20:00:00Z,26.5255,-82.0032,2.13,6.11,1111122 
SCCF RECON,ioos:station:SCCF:13:1,2011-06-10T21:00:00Z,26.5255,-82.0032,2.115,6.16,1111122 
SCCF RECON,ioos:station:SCCF:13:1,2011-06-10T22:00:00Z,26.5255,-82.0032,2.169,6.05,1111122 
SCCF RECON,ioos:station:SCCF:13:1,2011-06-10T23:00:00Z,26.5255,-82.0032,2.27,5.89,1111122 
SCCF RECON,ioos:station:SCCF:13:1,2011-06-11T00:00:00Z,26.5255,-82.0032,2.37,5.54,1111122 
SCCF RECON,ioos:station:SCCF:13:1,2011-06-11T01:00:00Z,26.5255,-82.0032,2.352,5.78,1111122 
SCCF RECON,ioos:station:SCCF:13:1,2011-06-11T02:00:00Z,26.5255,-82.0032,2.401,5.82,1111122 
SCCF RECON,ioos:station:SCCF:13:1,2011-06-11T03:00:00Z,26.5255,-82.0032,2.42,5.84,1111122 
SCCF RECON,ioos:station:SCCF:13:1,2011-06-11T04:00:00Z,26.5255,-82.0032,2.382,5.8,1111122 
SCCF RECON,ioos:station:SCCF:13:1,2011-06-11T05:00:00Z,26.5255,-82.0032,2.32,5.83,1111122 
SCCF RECON,ioos:station:SCCF:13:1,2011-06-11T06:00:00Z,26.5255,-82.0032,2.276,5.43,1111122 
SCCF RECON,ioos:station:SCCF:13:1,2011-06-11T07:00:00Z,26.5255,-82.0032,2.2,5.08,1111122 
SCCF RECON,ioos:station:SCCF:13:1,2011-06-11T08:00:00Z,26.5255,-82.0032,2.16,4.86,1111122 
SCCF RECON,ioos:station:SCCF:13:1,2011-06-11T09:00:00Z,26.5255,-82.0032,2.286,5.05,1111122 
SCCF RECON,ioos:station:SCCF:13:1,2011-06-11T10:00:00Z,26.5255,-82.0032,2.382,4.13,1111122 
SCCF RECON,ioos:station:SCCF:13:1,2011-06-11T11:00:00Z,26.5255,-82.0032,2.475,4.43,1111122 
SCCF RECON,ioos:station:SCCF:13:1,2011-06-11T12:00:00Z,26.5255,-82.0032,2.556,5.28,1111122 
SCCF RECON,ioos:station:SCCF:13:1,2011-06-11T13:00:00Z,26.5255,-82.0032,2.615,5.04,1111122 
SCCF RECON,ioos:station:SCCF:13:1,2011-06-11T14:00:00Z,26.5255,-82.0032,2.66,4.92,1111122 
SCCF RECON,ioos:station:SCCF:13:1,2011-06-11T15:00:00Z,26.5255,-82.0032,2.63,5.29,1111122 
SCCF RECON,ioos:station:SCCF:13:1,2011-06-11T16:00:00Z,26.5255,-82.0032,2.53,5.57,1111122 
SCCF RECON,ioos:station:SCCF:13:1,2011-06-11T17:00:00Z,26.5255,-82.0032,2.441,5.52,1111122 
SCCF RECON,ioos:station:SCCF:13:1,2011-06-11T18:00:00Z,26.5255,-82.0032,2.355,5.58,1111122 
SCCF RECON,ioos:station:SCCF:13:1,2011-06-11T19:00:00Z,26.5255,-82.0032,2.263,5.64,1111122 
SCCF RECON,ioos:station:SCCF:13:1,2011-06-11T20:00:00Z,26.5255,-82.0032,2.17,5.99,1111122 
SCCF RECON,ioos:station:SCCF:13:1,2011-06-11T21:00:00Z,26.5255,-82.0032,2.092,6.15,1111122 